Davis Vantage Pro 2 Aktiv Plus 6163EU 24h Lftung - Paderborn Kernstadt
Wetterdaten: aktuell Donnerstag, 30.11.2023 23:00
Datum Zeit Temp. I. Temp. A. Feuchte I. Feuchte A. Luftdruck Regen Wind Richtung Richtung Sonnenschein ET UV Solar Taupunkt Windchill Windben
30.11.2023 23:00 21,3 C -3,2 C 48 % 87 % 1002,4 hPa 0,0 l/m 0,0 km/h (0 Bft) N 0 0 min 0,000 mm 0,0 UV-I 0 W/m -5,0 C -3,2 C 0,0 km/h (0 Bft)
30.11.2023 22:00 21,3 C -2,9 C 48 % 86 % 1002,3 hPa 0,0 l/m 0,0 km/h (0 Bft) N 0 0 min 0,000 mm 0,0 UV-I 0 W/m -4,9 C -2,9 C 0,0 km/h (0 Bft)
30.11.2023 21:00 21,2 C -2,6 C 48 % 86 % 1001,9 hPa 0,0 l/m 0,0 km/h (0 Bft) N 0 0 min 0,000 mm 0,0 UV-I 0 W/m -4,6 C -2,6 C 0,0 km/h (0 Bft)
30.11.2023 19:58 21,1 C -2,2 C 49 % 86 % 1001,7 hPa 0,0 l/m 3,2 km/h (1 Bft) SO 130 0 min 0,000 mm 0,0 UV-I 0 W/m -4,2 C -2,2 C 6,4 km/h (2 Bft)
30.11.2023 18:58 21,2 C -1,6 C 49 % 85 % 1001,5 hPa 0,0 l/m 2,7 km/h (1 Bft) O-SO 108 0 min 0,000 mm 0,0 UV-I 0 W/m -3,8 C -1,6 C 4,8 km/h (1 Bft)
30.11.2023 17:58 21,2 C -1,3 C 49 % 84 % 1001,3 hPa 0,0 l/m 1,3 km/h (1 Bft) O-SO 108 0 min 0,000 mm 0,0 UV-I 0 W/m -3,6 C -1,3 C 4,8 km/h (1 Bft)
30.11.2023 16:58 21,4 C -0,4 C 49 % 83 % 1001,3 hPa 0,0 l/m 1,2 km/h (1 Bft) SO 131 0 min 0,000 mm 0,0 UV-I 0 W/m -2,9 C -0,4 C 3,2 km/h (1 Bft)
30.11.2023 15:58 21,7 C 0,7 C 48 % 83 % 1001,0 hPa 0,0 l/m 0,6 km/h (0 Bft) SO 131 0 min 0,000 mm 0,0 UV-I 0 W/m -1,8 C 0,7 C 1,6 km/h (1 Bft)
30.11.2023 14:56 21,8 C 1,1 C 48 % 82 % 1000,7 hPa 0,0 l/m 3,3 km/h (1 Bft) O-NO 77 0 min 0,000 mm 0,0 UV-I 19 W/m -1,6 C 1,1 C 11,3 km/h (2 Bft)
30.11.2023 13:56 21,8 C 1,3 C 48 % 82 % 1001,0 hPa 0,0 l/m 1,2 km/h (1 Bft) O-SO 120 10 min 0,000 mm 0,0 UV-I 30 W/m -1,4 C 1,3 C 4,8 km/h (1 Bft)
30.11.2023 12:56 21,8 C 2,1 C 48 % 80 % 1001,0 hPa 0,0 l/m 9,4 km/h (2 Bft) SO 133 18 min 0,000 mm 0,0 UV-I 127 W/m -1,0 C -0,7 C 17,7 km/h (3 Bft)
30.11.2023 11:56 21,3 C 1,8 C 49 % 81 % 1001,2 hPa 0,0 l/m 4,9 km/h (1 Bft) SO 139 36 min 0,000 mm 0,0 UV-I 100 W/m -1,1 C 1,8 C 9,7 km/h (2 Bft)
30.11.2023 10:56 21,1 C 0,4 C 49 % 85 % 1001,6 hPa 0,0 l/m 2,2 km/h (1 Bft) O-SO 121 0 min 0,000 mm 0,0 UV-I 83 W/m -1,8 C 0,4 C 8,0 km/h (2 Bft)
30.11.2023 09:56 20,9 C -0,2 C 50 % 86 % 1002,0 hPa 0,0 l/m 4,8 km/h (1 Bft) O-SO 123 0 min 0,000 mm 0,0 UV-I 42 W/m -2,3 C -0,2 C 14,5 km/h (3 Bft)
30.11.2023 08:48 21,0 C -0,4 C 51 % 87 % 1002,1 hPa 0,0 l/m 1,5 km/h (1 Bft) O-SO 115 0 min 0,000 mm 0,0 UV-I 21 W/m -2,3 C -0,4 C 8,0 km/h (2 Bft)
30.11.2023 07:48 20,8 C -0,6 C 48 % 88 % 1001,8 hPa 0,0 l/m 1,2 km/h (1 Bft) SO 142 0 min 0,000 mm 0,0 UV-I 0 W/m -2,3 C -0,6 C 4,8 km/h (1 Bft)
30.11.2023 06:46 20,7 C -0,5 C 49 % 88 % 1002,0 hPa 0,0 l/m 0,5 km/h (0 Bft) SO 142 0 min 0,000 mm 0,0 UV-I 0 W/m -2,2 C -0,5 C 3,2 km/h (1 Bft)
30.11.2023 05:46 20,8 C -0,3 C 48 % 88 % 1002,0 hPa 0,0 l/m 0,0 km/h (0 Bft) SO 142 0 min 0,000 mm 0,0 UV-I 0 W/m -2,0 C -0,3 C 1,6 km/h (1 Bft)
30.11.2023 04:46 20,9 C -0,1 C 48 % 88 % 1002,0 hPa 0,0 l/m 0,1 km/h (0 Bft) W-SW 248 0 min 0,000 mm 0,0 UV-I 0 W/m -1,8 C -0,1 C 1,6 km/h (1 Bft)
30.11.2023 03:46 20,9 C 0,1 C 49 % 87 % 1002,3 hPa 0,0 l/m 0,0 km/h (0 Bft) N 0 0 min 0,000 mm 0,0 UV-I 0 W/m -1,8 C 0,1 C 0,0 km/h (0 Bft)
30.11.2023 02:46 20,9 C 0,2 C 48 % 87 % 1002,8 hPa 0,0 l/m 0,3 km/h (0 Bft) W-SW 248 0 min 0,000 mm 0,0 UV-I 0 W/m -1,7 C 0,2 C 3,2 km/h (1 Bft)
30.11.2023 01:46 21,0 C 0,6 C 48 % 87 % 1002,8 hPa 0,0 l/m 0,0 km/h (0 Bft) N 0 0 min 0,000 mm 0,0 UV-I 0 W/m -1,3 C 0,6 C 0,0 km/h (0 Bft)
30.11.2023 00:46 21,0 C 0,7 C 48 % 86 % 1002,9 hPa 0,0 l/m 0,9 km/h (0 Bft) SW 215 0 min 0,000 mm 0,0 UV-I 0 W/m -1,4 C 0,7 C 3,2 km/h (1 Bft)
30.11.2023 00:00 21,0 C 0,9 C 48 % 86 % 1002,9 hPa 0,0 l/m 2,1 km/h (1 Bft) W-SW 257 0 min 0,000 mm 0,0 UV-I 0 W/m -1,2 C 0,9 C 6,4 km/h (2 Bft)
_ Min-Zeit 06:48 22:52 00:00 11:34 14:56 - 01:28 - - - - - - 22:52 10:12 01:28
Minimum _ 20,6 C -3,2 C 48 % 79 % 1000,7 hPa - 0,0 km/h (0 Bft) - - - - - - -5,0 C -3,6 C 0,0 km/h (0 Bft)
_ Max-Zeit 14:30 11:32 08:10 03:50 00:00 00:00 12:04 - - 11:02 00:00 00:00 12:48 11:32 11:32 12:34
Maximum _ 22,1 C 2,6 C 52 % 88 % 1002,9 hPa 0,0 l/m 11,3 km/h
SO (2 Bft)
- - 2 min 0,000 mm 0,0 UV-I 281 W/m -0,5 C 2,6 C 22,5 km/h
SO (4 Bft)
Durchschnitt _ 21,2 C -0,2 C 49 % 85 % 1001,8 hPa #0,0 l/m 2,0 km/h (1 Bft) SO - #1:04 h #0,000 mm 0,0 UV-I 72 W/m -2,4 C -0,4 C 5,0 km/h (1 Bft)
© Andreas P. Gnther